Date,TemperatureHighF,TemperatureAvgF,TemperatureLowF,DewpointHighF,DewpointAvgF,DewpointLowF,HumidityHigh,HumidityAvg,HumidityLow,PressureMaxIn,PressureMinIn,WindSpeedMaxMPH,WindSpeedAvgMPH,GustSpeedMaxMPH,PrecipitationSumIn
2013-1-1,50.0,48.7,44.9,49.0,42.6,30.0,98,82,49,30.15,29.98,9,3,12,0.43
2013-1-2,51.0,48.4,45.3,49.0,45.7,42.0,99,90,79,30.19,29.93,10,3,13,0.09
2013-1-3,45.2,39.9,29.4,42.0,37.2,29.0,97,90,80,30.33,30.13,9,3,11,0.00
2013-1-4,51.8,39.8,22.7,32.1,23.5,17.6,98,56,26,30.40,30.27,14,3,15,0.01
2013-1-5,47.2,37.2,22.6,32.7,24.4,19.3,90,62,39,30.44,30.27,9,1,9,0.00
2013-1-6,55.4,45.6,36.2,43.4,38.2,30.0,88,76,63,30.28,30.07,13,2,13,0.03
2013-1-7,51.4,38.3,28.0,32.0,28.6,26.0,92,71,42,30.46,30.24,9,2,13,0.00
2013-1-8,52.1,39.0,24.0,42.0,33.1,22.0,95,81,61,30.52,30.41,5,0,6,0.00
2013-1-9,62.1,52.6,41.4,54.0,47.7,40.0,95,84,70,30.49,30.40,6,1,9,0.00
2013-1-10,67.0,56.2,45.2,53.0,49.1,43.0,98,79,59,30.52,30.38,8,2,10,0.01
2013-1-11,52.7,48.4,47.2,49.0,47.6,47.0,98,97,81,30.39,30.20,12,4,13,0.18
2013-1-12,72.7,60.4,48.6,66.0,58.0,48.0,99,92,76,30.20,30.11,10,2,11,0.00
2013-1-13,70.9,62.7,56.7,63.0,59.9,56.0,98,90,73,30.15,30.06,13,3,17,0.00
2013-1-14,67.3,63.5,60.6,65.0,62.3,59.0,98,96,91,30.14,30.06,7,2,15,0.25
2013-1-15,60.7,49.4,42.7,60.0,48.7,41.0,98,97,95,30.18,30.09,13,7,17,0.16
2013-1-16,50.6,46.4,42.3,50.0,45.8,41.0,99,97,95,30.09,30.01,9,3,12,0.33
2013-1-17,51.4,46.0,35.6,51.0,45.5,35.0,99,98,96,30.23,29.81,27,9,36,2.08
2013-1-18,49.6,38.8,29.0,35.0,29.3,25.0,99,72,39,30.55,30.23,7,2,9,0.00
2013-1-19,53.8,38.5,23.5,33.0,27.2,23.0,97,69,32,30.54,30.21,10,2,14,0.00
2013-1-20,63.6,48.5,33.3,36.0,29.7,25.0,83,52,30,30.21,30.06,16,4,22,0.00
2013-1-21,60.6,43.6,26.7,35.0,25.8,16.0,94,56,27,30.12,29.96,25,5,27,0.00
2013-1-22,42.1,35.0,27.5,15.0,7.4,-6.0,48,33,14,30.30,30.06,22,7,31,0.00
2013-1-23,47.4,35.2,22.0,29.0,17.2,2.0,71,49,33,30.40,30.11,12,3,16,0.00
2013-1-24,47.4,40.2,25.7,33.0,18.0,5.0,74,44,21,30.53,30.03,20,8,27,0.00
2013-1-25,27.5,25.8,19.5,25.7,18.9,8.0,93,76,46,30.55,30.18,10,2,11,0.00
2013-1-26,48.0,33.6,23.8,37.0,29.2,22.6,97,85,55,30.41,30.16,9,1,9,0.01
2013-1-27,44.1,36.8,27.7,32.0,28.4,24.9,94,73,55,30.61,30.41,11,3,11,0.00
2013-1-28,52.9,43.5,36.8,47.0,37.3,29.8,92,79,67,30.52,30.29,15,3,18,0.00
2013-1-29,70.5,58.2,43.2,60.6,53.0,42.0,97,84,69,30.29,30.03,19,4,19,0.00
2013-1-30,71.3,64.4,48.6,63.2,60.2,44.8,98,87,72,30.04,29.47,33,9,34,1.25
2013-1-31,49.6,43.2,36.9,44.8,27.0,18.6,88,55,32,30.07,29.56,28,10,28,0.00
2013-2-1,41.2,35.8,23.3,30.6,13.9,3.1,70,42,23,30.41,29.96,32,8,38,0.00
2013-2-2,44.4,32.2,19.2,35.7,20.2,9.9,90,65,30,30.44,30.09,22,5,23,0.00
2013-2-3,52.6,42.3,34.7,36.0,28.6,21.4,93,61,31,30.10,29.90,28,8,29,0.00
2013-2-4,51.1,38.9,25.1,30.3,24.4,20.0,83,58,35,30.18,30.04,14,2,14,0.00
2013-2-5,64.3,50.2,38.5,45.1,36.1,29.8,84,60,35,30.04,29.91,20,4,20,0.00
2013-2-6,64.8,50.7,37.7,43.3,30.6,16.6,97,53,18,30.23,30.01,14,2,14,0.00
2013-2-7,47.2,42.4,39.6,39.2,33.8,26.0,95,74,44,30.30,30.04,22,8,22,0.72
2013-2-8,59.1,47.5,39.1,48.8,38.6,27.6,95,74,45,30.16,29.92,26,6,28,0.00
2013-2-9,60.7,44.2,30.5,29.0,25.0,19.8,79,51,21,30.37,30.14,9,1,9,0.00
2013-2-10,56.4,44.3,32.7,44.9,31.5,22.9,94,64,30,30.47,30.19,18,2,19,0.20
2013-2-11,57.4,50.8,43.3,56.1,49.7,41.7,98,96,92,30.21,29.99,19,4,19,0.11
2013-2-12,57.8,50.2,40.3,50.0,37.3,27.0,95,65,32,30.14,29.91,11,2,11,0.06
2013-2-13,49.7,44.8,37.6,46.2,41.9,33.4,97,90,67,29.96,29.69,21,3,22,0.05
2013-2-14,52.4,41.7,27.6,35.0,32.6,26.0,96,72,48,30.11,29.92,15,2,15,0.00
2013-2-15,61.9,43.0,26.0,39.0,32.3,25.0,96,71,33,30.15,29.96,16,3,21,0.00
2013-2-16,44.9,36.7,26.1,32.9,29.0,20.1,96,74,60,30.07,29.87,16,4,17,0.00
2013-2-17,41.6,32.3,22.4,21.4,12.8,7.7,83,47,25,30.32,30.07,28,6,29,0.00
2013-2-18,55.6,39.2,20.1,28.0,21.3,11.0,84,51,32,30.43,30.25,16,3,17,0.00
2013-2-19,52.8,43.2,35.7,43.9,32.9,14.5,96,70,28,30.25,29.91,19,5,21,0.20
2013-2-20,55.7,43.2,27.3,21.7,13.0,-2.0,64,32,10,30.15,30.06,20,4,24,0.00
2013-2-21,58.2,42.2,23.4,39.0,19.0,8.7,86,43,20,30.29,30.12,11,2,12,0.06
2013-2-22,42.9,38.9,37.5,39.0,37.3,37.0,97,94,82,30.35,30.17,10,5,11,0.34
2013-2-23,45.2,40.8,36.8,43.0,39.5,36.0,97,95,90,30.19,29.90,10,3,11,0.44
2013-2-24,64.1,53.1,40.8,43.0,28.8,19.0,97,41,18,30.06,29.92,11,2,17,0.00
2013-2-25,43.8,41.3,38.1,29.8,28.1,26.0,69,59,56,30.21,30.04,22,7,22,0.00
2013-2-26,40.8,36.3,32.7,40.3,34.8,27.8,98,94,67,30.13,29.66,25,7,25,1.17
2013-2-27,56.1,46.9,36.7,41.1,37.3,34.5,98,71,51,29.86,29.70,20,6,20,0.00
2013-2-28,48.4,41.4,31.2,35.3,28.6,24.0,91,62,41,29.95,29.76,27,6,27,0.00
2013-3-1,46.7,37.8,25.5,31.7,27.8,23.0,91,69,51,29.99,29.92,11,2,13,0.00
2013-3-2,46.1,38.8,31.3,39.0,30.9,23.0,93,74,54,29.99,29.87,13,2,14,0.15
2013-3-3,44.7,33.3,22.5,23.5,19.4,16.0,89,59,37,30.07,29.95,19,3,21,0.00
2013-3-4,56.4,38.7,20.2,26.7,17.7,12.9,84,48,20,30.21,30.07,15,2,15,0.00
2013-3-5,50.8,45.4,40.4,45.6,37.7,23.3,96,76,45,30.11,29.66,17,2,17,0.51
2013-3-6,46.7,39.6,34.1,42.2,25.5,20.0,96,58,41,30.17,29.68,33,10,33,0.00
2013-3-7,56.1,40.5,25.8,30.2,26.7,23.4,92,61,32,30.32,30.16,13,3,18,0.00
2013-3-8,57.7,41.7,23.6,27.9,23.6,18.3,91,54,23,30.38,30.24,18,3,18,0.00
2013-3-9,63.8,45.2,25.1,35.3,29.0,22.4,91,57,29,30.41,30.27,13,1,13,0.00
2013-3-10,66.0,51.8,34.1,40.4,35.7,31.2,90,58,32,30.33,30.19,13,2,14,0.00
2013-3-11,67.5,55.1,40.6,54.8,45.1,34.1,95,70,51,30.22,29.86,24,4,24,0.45
2013-3-12,66.9,57.9,45.1,57.1,46.0,29.0,97,70,27,30.02,29.76,18,6,19,0.22
2013-3-13,55.0,44.0,33.6,32.2,26.3,18.0,89,53,29,30.21,30.02,29,5,31,0.00
2013-3-14,52.1,40.8,30.0,20.3,16.5,10.6,58,40,22,30.35,30.20,17,4,18,0.00
2013-3-15,69.5,45.5,27.0,43.0,28.1,18.0,82,53,32,30.24,29.93,15,3,22,0.00
2013-3-16,77.0,67.1,58.1,48.0,45.2,43.0,60,47,34,29.93,29.73,24,9,31,0.00
2013-3-17,76.5,63.0,45.5,53.0,45.7,40.0,81,55,36,30.10,29.85,21,7,24,0.00
2013-3-18,45.3,40.8,39.4,40.4,39.4,37.8,97,95,82,30.15,29.91,17,7,21,0.65
2013-3-19,63.4,50.6,40.6,44.3,30.1,14.0,98,57,16,30.10,29.89,32,7,32,0.00
2013-3-20,57.2,49.6,43.9,23.3,15.0,9.4,40,25,19,30.15,29.83,24,4,29,0.00
2013-3-21,46.2,38.3,29.9,28.6,14.1,7.8,64,38,26,30.03,29.85,30,6,36,0.00
2013-3-22,51.9,38.5,23.6,26.6,18.7,13.0,81,47,27,30.14,30.01,16,3,17,0.00
2013-3-23,54.6,45.2,39.5,43.4,36.6,26.0,94,73,47,30.09,29.93,12,2,12,0.04
2013-3-24,44.6,42.0,39.5,43.0,40.2,37.9,96,93,87,29.97,29.59,26,7,26,0.86
2013-3-25,46.2,40.9,36.6,38.5,28.2,18.8,98,65,36,29.95,29.60,37,9,37,0.03
2013-3-26,47.6,38.7,26.5,26.8,23.6,19.9,85,56,36,30.24,29.94,25,5,25,0.00
2013-3-27,52.4,39.5,24.9,26.8,23.8,21.6,89,56,32,30.32,30.22,16,3,16,0.00
2013-3-28,57.4,41.3,24.2,28.6,23.0,20.0,90,54,25,30.37,30.23,25,3,30,0.00
2013-3-29,62.4,46.4,26.9,40.0,27.5,23.0,87,53,25,30.39,30.23,15,3,18,0.00
2013-3-30,64.8,53.8,44.6,47.0,43.3,40.0,96,71,42,30.26,30.07,9,3,16,0.20
2013-3-31,70.2,56.4,49.7,59.0,51.8,44.0,98,86,57,30.08,29.84,21,4,29,0.44
2013-4-1,69.6,61.0,52.9,55.0,45.1,36.0,96,61,30,29.99,29.86,19,5,27,0.00
2013-4-2,65.8,55.5,46.3,36.0,30.7,18.0,62,41,19,30.18,29.99,13,4,24,0.00
2013-4-3,59.5,54.4,45.1,28.6,24.0,18.0,37,31,25,30.30,30.14,16,5,19,0.00
2013-4-4,52.8,42.4,36.6,36.6,31.1,23.0,95,69,37,30.29,30.03,24,8,24,0.87
2013-4-5,67.5,50.8,37.7,46.8,40.0,35.6,97,71,34,30.09,29.94,19,4,20,0.00
2013-4-6,49.3,36.2,34.5,38.2,33.8,32.6,95,91,63,30.16,30.09,3,1,3,0.00
2013-4-7,71.5,53.6,34.5,49.0,42.0,33.0,94,69,40,30.27,30.11,20,4,20,0.00
2013-4-8,77.2,65.5,50.2,57.9,52.6,46.6,95,66,42,30.18,30.06,21,5,22,0.00
2013-4-9,82.5,70.5,54.9,59.6,55.6,51.4,91,61,41,30.20,30.09,19,4,20,0.00
2013-4-10,84.5,71.6,60.7,61.0,57.9,55.8,87,64,41,30.11,29.94,13,4,18,0.00
2013-4-11,80.5,71.9,59.3,67.1,62.9,57.0,94,75,53,29.97,29.73,20,5,20,0.07
2013-4-12,79.4,70.0,60.9,67.3,55.0,37.9,97,65,29,29.83,29.65,29,8,30,0.72
2013-4-13,77.1,61.5,41.5,46.8,38.2,27.0,92,48,16,30.04,29.83,26,2,26,0.00
2013-4-14,74.9,60.5,41.9,54.0,44.9,38.1,91,60,35,30.11,29.99,14,2,18,0.02
2013-4-15,65.7,60.0,55.9,59.7,56.7,53.0,96,89,79,30.22,30.00,15,5,15,0.04
2013-4-16,79.0,67.1,58.0,62.6,58.7,56.3,95,76,50,30.31,30.19,12,2,12,0.00
2013-4-17,79.6,66.7,57.9,63.9,60.4,56.1,96,82,54,30.26,30.12,19,2,21,0.00
2013-4-18,79.3,68.6,58.3,64.1,61.1,57.0,98,79,52,30.17,29.98,19,3,19,0.00
2013-4-19,75.0,65.5,53.5,66.8,61.7,46.7,94,88,73,29.98,29.75,32,8,32,0.39
2013-4-20,65.5,53.3,40.0,47.0,34.6,26.5,92,52,30,30.29,29.92,19,3,19,0.00
2013-4-21,61.8,52.0,37.3,41.9,37.3,31.8,94,59,42,30.47,30.29,23,6,23,0.00
2013-4-22,62.3,51.7,43.2,41.7,37.1,32.4,82,60,34,30.46,30.25,24,7,24,0.00
2013-4-23,71.9,50.5,41.3,49.0,39.6,34.0,84,67,42,30.31,30.12,11,3,15,0.00
2013-4-25,71.5,64.8,54.9,45.0,38.5,33.0,64,39,28,30.30,30.19,11,3,12,0.00
2013-4-26,70.6,56.0,36.1,49.0,37.6,33.0,92,55,27,30.46,30.30,14,3,18,0.00
2013-4-27,62.9,56.5,53.8,54.0,51.4,45.0,98,84,60,30.38,30.27,6,2,8,0.60
2013-4-28,55.1,54.1,52.7,55.0,53.8,52.0,99,99,98,30.28,30.07,10,3,15,2.18
2013-4-29,73.3,64.8,54.6,62.5,58.9,54.0,99,82,59,30.09,29.95,12,2,12,0.11
2013-4-30,73.3,63.2,53.3,62.4,58.5,52.4,99,86,60,30.19,30.00,17,5,17,0.00
2013-5-1,65.2,60.1,53.6,58.0,55.7,52.4,97,86,73,30.30,30.19,22,7,22,0.00
2013-5-2,61.6,58.8,55.5,57.7,56.4,54.0,97,92,86,30.32,30.25,18,8,18,0.12
2013-5-3,64.9,61.4,61.4,57.5,57.5,52.0,87,87,87,30.28,30.11,18,8,21,0.12
2013-5-4,61.4,61.4,61.4,57.5,57.5,44.0,87,87,87,30.28,30.00,18,8,27,0.12
2013-5-5,61.4,61.3,56.7,58.0,57.5,49.0,98,87,87,30.28,29.85,24,8,28,4.06
2013-5-6,67.2,59.7,52.6,59.0,53.3,47.0,99,82,51,29.93,29.84,12,4,16,0.45
2013-5-7,69.8,58.9,42.9,54.8,50.1,42.0,97,75,40,29.98,29.88,27,2,29,0.01
2013-5-8,74.1,60.7,49.7,59.0,54.5,48.9,98,82,50,30.03,29.94,17,2,17,0.02
2013-5-9,81.3,68.7,49.8,63.5,56.8,49.0,97,69,41,30.11,30.01,12,2,13,0.00
2013-5-10,80.8,68.6,52.8,65.0,59.4,51.7,97,75,48,30.09,29.96,22,3,22,0.00
2013-5-11,78.3,70.0,62.9,64.6,61.8,58.6,94,76,57,29.97,29.81,19,5,20,0.03
2013-5-12,71.3,62.6,51.2,60.4,44.7,17.5,95,58,13,30.07,29.86,24,5,24,0.00
2013-5-13,68.0,55.1,38.2,41.1,34.7,22.4,92,51,19,30.22,30.07,22,3,24,0.00
2013-5-14,72.7,59.0,40.1,50.3,41.6,34.6,87,55,35,30.29,30.10,20,3,20,0.00
2013-5-15,87.8,72.4,53.1,64.2,57.9,50.1,91,63,41,30.10,29.94,16,4,17,0.00
2013-5-16,81.3,71.2,60.5,65.0,59.4,56.0,87,68,43,30.03,29.95,12,3,14,0.00
2013-5-17,84.3,72.8,58.4,66.0,62.2,57.0,96,71,47,30.09,30.01,7,1,13,0.00
2013-5-18,70.1,67.2,62.9,67.3,64.7,60.8,96,92,81,30.15,30.06,12,2,14,0.31
2013-5-19,77.0,69.6,65.2,70.2,66.9,64.5,98,92,73,30.13,30.01,10,2,10,0.28
2013-5-20,82.8,72.8,65.8,69.4,67.1,64.5,98,84,59,30.14,30.01,9,2,9,0.02
2013-5-21,87.1,73.7,64.8,72.1,67.4,63.3,97,82,55,30.05,29.93,21,2,21,0.00
2013-5-22,84.1,71.5,63.8,71.4,66.0,61.4,98,84,57,30.01,29.86,31,4,32,1.00
2013-5-23,78.8,68.1,63.3,68.9,65.1,61.6,99,91,67,30.00,29.84,14,2,14,0.49
2013-5-25,76.9,62.1,41.8,49.2,43.2,39.2,92,53,29,30.33,30.17,17,7,17,0.00
2013-5-26,75.1,63.0,53.9,52.9,48.4,42.8,85,60,45,30.31,30.19,12,6,12,0.00
2013-5-31,84.5,79.5,71.3,68.5,66.4,63.4,87,65,51,30.26,30.11,14,4,15,0.00
2013-6-1,84.6,76.1,68.3,68.4,66.9,64.0,93,75,53,30.14,30.01,16,3,16,0.00
2013-6-2,77.7,72.9,67.6,72.3,68.5,65.0,97,86,77,30.05,29.91,15,3,15,0.36
2013-6-3,82.2,72.9,65.9,72.1,68.4,65.0,98,87,62,29.96,29.85,11,1,11,0.22
2013-6-4,81.7,73.8,65.2,68.1,66.2,63.3,97,78,56,30.07,29.95,18,5,18,0.05
2013-6-5,78.3,71.3,67.3,71.0,67.5,64.7,98,88,76,30.10,29.97,25,5,25,0.95
2013-6-6,75.3,71.6,68.7,72.5,70.0,67.7,98,95,87,29.99,29.80,11,3,11,0.80
2013-6-7,83.7,72.6,67.3,72.8,68.5,64.6,98,88,61,29.84,29.67,12,4,13,0.21
2013-6-8,83.5,74.0,66.3,70.8,67.3,64.5,98,81,57,30.09,29.83,11,2,11,0.00
2013-6-9,83.8,74.3,65.4,72.7,69.1,64.2,97,85,64,30.15,30.03,15,2,17,0.26
2013-6-10,78.1,72.4,68.1,73.0,69.3,67.0,98,90,75,30.07,29.91,16,5,23,0.45
2013-6-11,87.4,76.6,68.0,71.0,66.6,62.0,97,74,45,30.00,29.93,12,4,20,0.00
2013-6-12,89.7,77.9,63.4,78.0,70.6,62.0,97,80,54,30.02,29.89,11,2,15,0.00
2013-6-13,91.7,79.7,70.6,75.0,70.6,66.0,94,76,47,29.89,29.67,19,5,25,0.01
2013-6-14,82.1,74.7,62.4,65.0,56.7,52.1,85,55,37,30.04,29.78,17,5,21,0.00
2013-6-15,84.3,69.1,55.9,64.0,59.4,55.0,96,74,46,30.15,30.04,11,2,14,0.00
2013-6-16,85.0,74.5,64.3,69.0,65.5,61.0,90,75,51,30.15,30.02,15,4,17,0.00
2013-6-17,83.7,75.2,69.6,73.9,70.3,67.7,96,85,67,30.04,29.94,17,3,17,0.25
2013-6-18,82.5,73.1,68.2,74.2,70.5,67.0,98,92,72,29.96,29.79,21,3,21,1.09
2013-6-19,80.4,73.9,66.9,71.0,66.1,62.3,98,78,55,30.11,29.91,15,3,15,0.00
2013-6-20,81.4,73.3,66.3,68.7,66.4,64.2,95,80,57,30.23,30.11,16,4,17,0.00
2013-6-21,82.7,72.9,62.1,66.2,63.8,59.7,98,75,51,30.29,30.17,14,3,15,0.00
2013-6-22,84.7,73.3,60.6,68.1,64.1,59.0,96,75,48,30.24,30.12,13,2,13,0.00
2013-6-23,87.0,74.8,63.7,72.9,68.4,62.5,97,82,55,30.22,30.11,17,2,20,0.01
2013-6-24,86.5,76.1,67.7,75.4,71.3,67.0,98,86,63,30.22,30.09,14,3,16,0.00
2013-6-25,87.8,75.7,69.2,73.7,70.2,66.5,97,85,53,30.14,30.01,16,3,16,0.42
2013-6-26,88.8,76.7,68.0,76.1,71.4,67.0,98,85,57,30.05,29.91,16,2,16,0.00
2013-6-27,88.5,78.8,72.9,77.8,72.9,68.7,96,83,64,29.95,29.72,17,5,17,0.03
2013-6-28,92.8,80.0,69.5,75.8,71.6,68.0,96,77,52,29.78,29.58,29,3,34,0.13
2013-6-29,86.9,77.4,68.8,73.3,70.1,66.9,97,80,54,29.71,29.62,14,2,15,0.00
2013-6-30,86.3,74.6,68.7,72.6,69.4,66.9,96,85,56,29.84,29.69,14,2,15,0.05
2013-7-1,81.5,74.1,68.1,72.1,70.0,67.0,98,87,70,29.96,29.82,15,3,15,0.06
2013-7-2,78.5,73.4,70.6,74.3,71.5,68.5,98,94,84,30.14,29.96,16,4,16,0.36
2013-7-3,79.4,73.4,67.4,73.8,71.3,65.7,98,94,81,30.23,30.12,16,3,17,0.30
2013-7-4,83.8,73.2,67.3,75.2,70.5,66.4,99,92,72,30.24,30.14,34,4,35,2.25
2013-7-5,82.5,73.5,69.6,75.3,71.9,69.0,99,95,73,30.25,30.18,30,2,30,1.92
2013-7-6,85.0,76.0,71.3,74.9,72.1,70.7,98,89,66,30.24,30.10,18,4,20,0.22
2013-7-7,84.0,77.0,72.8,75.9,73.4,71.7,98,89,69,30.19,30.06,16,3,17,0.05
2013-7-8,85.3,77.7,71.8,76.2,72.9,70.6,98,86,67,30.19,30.10,11,2,13,0.01
2013-7-9,89.3,78.3,69.6,78.0,72.8,68.4,97,84,61,30.17,30.05,12,2,13,0.03
2013-7-10,84.2,74.8,69.1,76.2,71.9,68.5,98,91,75,30.13,29.95,17,2,18,0.71
2013-7-11,78.8,74.1,70.6,76.0,73.1,70.0,99,97,88,29.98,29.88,8,1,8,0.07
2013-7-12,81.2,73.2,69.0,74.0,70.6,68.0,98,92,69,30.01,29.89,14,3,17,0.25
2013-7-13,79.0,73.1,68.4,72.0,69.5,67.0,96,88,78,30.12,30.01,15,6,18,0.01
2013-7-14,83.9,75.0,71.0,75.0,71.8,68.4,98,90,69,30.28,30.10,31,7,31,0.59
2013-7-15,85.8,77.1,69.8,73.0,71.2,68.5,98,83,62,30.34,30.24,15,4,16,0.01
2013-7-16,92.0,79.8,68.3,75.3,72.0,67.4,98,79,54,30.32,30.21,8,1,8,0.00
2013-7-17,90.7,78.2,67.4,79.5,73.0,67.0,99,85,60,30.25,30.11,37,2,38,0.76
2013-7-18,88.9,77.6,66.8,78.0,72.3,67.0,99,85,62,30.18,30.07,9,1,11,0.01
2013-7-19,89.0,79.5,69.1,76.0,73.3,68.0,98,82,61,30.12,29.98,8,2,14,0.00
2013-7-20,85.4,75.7,70.6,76.0,72.9,70.0,98,91,73,30.04,29.95,15,3,24,0.20
2013-7-21,86.9,74.2,69.9,77.0,72.0,69.0,99,93,70,30.02,29.94,10,2,13,0.13
2013-7-22,83.7,75.9,70.6,76.0,72.5,70.0,99,89,72,30.01,29.84,11,3,15,0.03
2013-7-23,87.8,78.6,69.9,74.0,71.3,67.0,97,80,50,29.88,29.78,13,4,17,0.00
2013-7-24,89.2,79.0,69.1,76.0,71.1,67.0,97,78,58,29.85,29.74,20,2,21,0.00
2013-7-25,83.0,74.5,67.4,72.0,68.3,65.0,95,82,64,30.03,29.84,14,4,31,0.02
2013-7-26,83.8,75.3,66.1,72.0,69.7,65.0,98,83,64,30.11,30.01,9,2,10,0.00
2013-7-27,77.8,73.4,69.6,74.0,71.1,67.0,97,93,78,30.03,29.91,13,3,16,1.34
2013-7-28,84.7,75.4,68.3,74.0,70.9,68.0,99,87,64,30.00,29.92,6,2,13,0.00
2013-7-29,85.5,74.7,65.2,72.0,67.5,65.0,98,81,52,30.16,30.01,6,1,8,0.00
2013-7-30,83.2,74.9,68.2,72.0,67.7,62.0,96,79,64,30.23,30.13,10,3,12,0.00
2013-7-31,79.5,73.1,70.5,74.0,70.6,68.0,97,92,81,30.17,29.98,13,2,14,0.04
2013-8-1,83.9,72.0,71.5,74.0,70.5,70.0,96,95,84,30.01,29.89,6,3,10,0.47
2013-8-2,87.6,72.1,71.1,73.0,70.5,66.0,97,95,65,30.04,29.93,8,3,12,0.01
2013-8-3,86.8,72.0,71.4,72.0,70.5,66.0,98,95,95,30.03,29.94,10,3,14,0.00
2013-8-4,86.8,72.0,72.0,70.5,70.5,65.0,95,95,95,30.03,29.93,11,3,16,0.00
2013-8-5,83.5,73.9,69.1,72.3,70.4,64.0,95,89,67,30.08,29.97,10,3,12,0.48
2013-8-6,75.6,71.6,68.8,71.3,69.7,67.8,97,94,82,30.07,29.98,12,2,12,0.63
2013-8-7,81.3,74.8,69.9,74.7,71.8,69.0,98,91,74,30.10,30.01,10,2,10,0.02
2013-8-8,85.2,77.3,71.6,76.0,73.3,70.7,98,88,70,30.07,30.00,16,2,17,0.00
2013-8-9,88.6,77.8,72.4,78.0,73.9,71.2,98,89,66,30.08,30.00,20,3,20,0.03
2013-8-10,89.4,77.4,71.3,78.5,74.1,70.0,98,90,66,30.12,30.05,29,3,29,0.38
2013-8-11,89.2,76.6,68.6,76.7,72.3,68.0,98,88,60,30.14,30.05,11,2,12,0.02
2013-8-12,90.2,78.8,70.5,77.6,73.2,69.8,98,84,58,30.07,29.95,12,2,13,0.00
2013-8-13,87.3,76.4,71.3,76.2,72.6,70.0,99,89,64,29.97,29.81,17,4,19,0.13
2013-8-14,77.8,72.7,67.0,71.0,67.1,63.0,98,83,64,30.08,29.87,13,3,16,0.00
2013-8-15,72.2,67.7,61.3,63.1,59.9,57.1,94,77,63,30.17,30.07,17,6,19,0.00
2013-8-16,70.5,65.7,62.4,63.2,60.9,58.0,93,85,74,30.18,30.10,15,5,15,0.05
2013-8-17,67.5,64.8,63.3,64.0,61.8,59.6,97,90,84,30.22,30.15,16,5,16,0.15
2013-8-18,78.3,70.1,64.3,71.9,67.3,63.4,98,91,79,30.24,30.15,6,1,7,0.03
2013-8-19,77.5,70.6,66.7,71.6,68.4,66.0,98,93,75,30.21,30.10,9,1,9,0.84
2013-8-20,79.4,72.2,65.4,72.6,69.1,64.8,99,91,75,30.21,30.12,6,0,6,0.00
2013-8-21,81.3,73.2,69.7,74.3,71.2,69.0,98,94,77,30.25,30.13,10,1,15,1.64
2013-8-22,87.7,74.6,69.5,74.0,71.0,68.0,99,89,58,30.17,30.02,12,2,13,0.00
2013-8-23,87.7,72.7,65.6,74.0,68.8,65.0,99,89,55,30.07,29.98,16,1,21,0.25
2013-8-24,79.3,71.4,62.6,69.0,62.8,60.0,98,76,52,30.30,30.09,17,6,18,0.00
2013-8-25,78.4,67.3,58.5,64.7,61.0,57.0,97,82,51,30.41,30.29,11,3,15,0.03
2013-8-26,82.7,69.2,56.3,68.1,62.2,55.6,98,81,56,30.34,30.14,10,1,10,0.00
2013-8-27,87.5,74.3,62.4,73.6,67.8,61.3,98,82,57,30.17,30.00,10,2,11,0.00
2013-8-28,87.8,77.9,68.1,75.6,71.3,66.6,96,82,57,30.04,29.93,8,2,8,0.00
2013-8-29,92.0,80.3,68.8,77.8,71.7,67.7,97,77,48,29.98,29.88,14,3,15,0.00
2013-8-30,86.2,77.0,72.1,74.0,71.4,69.5,96,84,62,30.06,29.93,14,2,14,0.17
2013-8-31,87.1,74.5,68.3,76.4,70.7,66.0,98,89,65,29.97,29.88,28,2,28,0.27
2013-9-1,87.7,74.0,66.8,76.7,70.7,66.0,99,90,66,29.93,29.80,26,3,26,0.47
2013-9-2,88.0,76.5,67.2,76.2,71.9,66.5,99,87,59,29.92,29.81,8,1,9,0.00
2013-9-3,87.8,77.1,69.5,73.7,69.7,66.5,98,80,52,29.97,29.82,13,2,14,0.00
2013-9-4,85.8,73.4,63.1,70.1,66.4,62.0,98,81,55,30.11,29.97,13,2,13,0.00
2013-9-5,87.0,74.0,63.9,71.8,66.7,60.3,98,81,43,30.14,30.05,9,1,9,0.00
2013-9-6,81.6,71.1,61.0,66.7,63.1,60.0,97,78,52,30.21,30.08,18,2,18,0.00
2013-9-7,83.3,71.6,61.9,69.4,64.9,60.6,97,81,56,30.16,29.99,14,2,15,0.00
2013-9-8,86.1,73.2,61.0,71.8,66.9,60.2,98,83,55,30.01,29.94,5,1,8,0.00
2013-9-9,85.8,74.7,63.8,72.0,68.3,63.0,98,82,54,30.15,30.01,15,2,15,0.00
2013-9-10,89.0,75.6,63.7,73.6,68.8,62.9,98,81,49,30.25,30.15,10,1,10,0.00
2013-9-11,88.3,75.8,64.7,72.6,68.6,63.8,98,80,51,30.23,30.09,11,2,11,0.00
2013-9-12,88.8,75.3,66.2,74.1,69.8,65.0,97,85,55,30.09,29.86,23,2,24,0.13
2013-9-13,82.3,73.7,66.5,70.4,62.8,53.0,97,71,46,29.92,29.80,16,3,17,0.01
2013-9-14,75.5,65.7,56.9,60.1,55.0,51.1,87,69,53,30.13,29.92,19,5,19,0.00
2013-9-15,80.3,66.1,55.3,68.3,60.9,54.1,96,84,62,30.24,30.13,14,2,15,0.00
2013-9-16,84.0,72.4,61.0,69.4,63.9,60.0,98,77,47,30.17,30.07,17,2,17,0.00
2013-9-17,72.6,68.0,63.5,62.7,58.7,55.4,81,72,57,30.32,30.17,20,7,20,0.00
2013-9-18,73.3,66.0,59.3,62.4,58.3,54.6,89,77,62,30.32,30.18,13,3,13,0.00
2013-9-19,81.7,69.6,60.1,67.1,62.4,58.0,97,79,58,30.21,30.09,8,1,8,0.00
2013-9-20,85.5,72.5,60.2,69.7,65.1,59.0,98,80,54,30.10,29.92,10,1,10,0.00
2013-9-21,72.4,67.9,62.6,70.8,66.3,61.4,98,95,88,29.94,29.70,21,2,21,1.82
2013-9-22,77.2,66.5,55.9,63.9,58.1,52.6,99,77,49,29.93,29.73,17,3,17,0.00
2013-9-23,75.5,64.5,58.2,61.1,58.0,54.6,96,80,58,30.08,29.92,14,2,15,0.00
2013-9-24,75.2,66.0,57.6,63.9,60.7,56.2,97,84,63,30.10,29.95,9,1,9,0.00
2013-9-25,67.5,63.9,61.6,63.5,61.8,60.4,97,93,80,29.96,29.89,8,1,8,0.33
2013-9-26,74.9,64.9,55.2,63.1,57.9,52.3,98,80,47,30.06,29.90,14,3,14,0.00
2013-9-27,74.7,63.7,52.3,59.8,55.9,51.1,98,77,52,30.20,30.06,17,4,18,0.00
2013-9-28,70.9,62.8,55.6,59.0,55.5,53.1,92,78,58,30.28,30.18,17,4,17,0.00
2013-9-29,71.5,62.2,53.2,59.3,56.0,50.8,95,81,61,30.21,30.06,13,2,13,0.00
2013-9-30,76.5,64.7,54.8,60.5,57.2,53.7,98,79,52,30.13,30.02,10,1,10,0.00
2013-10-1,80.2,66.5,53.5,63.7,58.5,52.6,98,79,46,30.17,30.06,17,1,17,0.00
2013-10-2,82.2,67.1,53.7,66.4,60.2,52.8,98,81,50,30.18,30.08,11,1,12,0.00
2013-10-3,82.5,68.7,56.8,67.1,61.6,56.1,98,81,51,30.16,30.08,14,1,15,0.00
2013-10-4,84.7,69.2,57.0,69.7,63.2,56.0,98,83,52,30.17,30.08,12,1,12,0.00
2013-10-5,85.5,70.7,58.0,70.0,64.1,57.4,98,82,52,30.16,30.04,11,1,11,0.00
2013-10-6,81.9,70.3,58.5,69.0,64.1,57.7,98,82,56,30.06,29.89,12,2,12,0.00
2013-10-7,75.9,69.3,61.4,69.8,64.3,54.0,98,85,68,30.02,29.80,14,4,15,2.91
2013-10-8,69.2,61.8,55.8,55.5,50.9,47.0,83,68,54,30.23,30.01,26,8,26,0.00
2013-10-9,71.1,60.7,53.3,51.1,47.0,43.0,89,62,39,30.26,30.14,24,6,24,0.00
2013-10-10,76.3,61.4,44.0,61.3,52.7,42.9,98,76,50,30.16,30.00,15,2,15,0.00
2013-10-11,79.7,64.7,55.9,61.0,56.2,54.0,95,76,45,30.03,29.93,10,2,12,0.00
2013-10-12,73.4,63.7,52.7,64.0,58.9,52.0,97,85,64,30.11,29.98,5,1,6,0.00
2013-10-13,72.9,67.0,63.3,64.0,62.5,61.0,95,86,70,30.23,30.11,15,5,16,0.01
2013-10-14,70.3,65.8,61.7,62.4,61.0,59.8,95,85,75,30.26,30.16,18,6,18,0.00
2013-10-15,71.5,62.9,57.0,61.1,57.3,54.3,97,83,56,30.23,30.07,15,4,15,0.00
2013-10-16,71.9,61.4,50.1,62.0,57.4,49.6,98,87,68,30.11,29.98,6,1,16,0.00
2013-10-17,69.5,64.1,59.3,65.0,61.9,57.9,98,93,80,30.00,29.87,10,2,15,0.11
2013-10-18,68.9,60.9,51.5,63.1,57.1,51.0,99,88,69,30.06,29.91,11,2,11,0.02
2013-10-19,63.4,58.7,49.5,61.0,57.0,48.7,98,94,83,29.99,29.87,8,1,8,0.02
2013-10-20,66.3,52.1,40.1,50.5,46.0,39.8,99,82,49,30.14,29.95,11,1,12,0.01
2013-10-21,67.8,53.1,37.8,54.8,48.0,37.1,98,85,59,30.20,30.03,11,1,11,0.00
2013-10-22,66.6,60.3,54.2,58.7,56.1,52.6,96,86,70,30.05,29.82,11,2,11,0.00
2013-10-23,62.6,52.8,39.8,55.2,42.5,32.6,98,72,38,30.08,29.76,29,4,30,0.01
2013-10-24,58.5,43.9,30.0,45.0,35.1,29.0,96,74,45,30.23,30.08,14,2,15,0.00
2013-10-25,52.8,43.7,36.7,39.0,32.2,26.0,96,67,39,30.43,30.22,18,4,20,0.00
2013-10-26,56.8,41.8,26.2,39.0,32.4,25.0,96,73,43,30.43,30.12,13,3,15,0.00
2013-10-27,67.9,53.8,38.1,51.0,44.8,37.0,95,73,52,30.18,30.09,10,2,12,0.00
2013-10-28,69.5,57.0,46.6,57.0,51.8,46.0,97,84,59,30.28,30.14,6,1,7,0.00
2013-10-29,71.1,59.6,48.5,57.0,53.7,48.0,98,82,56,30.37,30.26,9,1,11,0.00
2013-10-30,77.7,65.6,50.7,59.7,56.6,49.9,97,75,51,30.31,30.17,13,2,18,0.00
2013-10-31,68.4,62.3,55.1,64.5,58.3,53.8,96,87,75,30.20,29.90,13,2,13,0.00
2013-11-1,68.5,64.6,58.0,65.2,61.4,57.1,97,90,78,29.91,29.69,23,4,25,0.16
2013-11-2,67.3,54.8,43.5,57.3,47.0,38.6,99,78,39,30.03,29.74,20,2,22,0.09
2013-11-3,61.5,49.1,38.3,43.5,38.5,35.8,93,70,39,30.40,30.03,13,2,17,0.00
2013-11-4,57.6,47.8,37.7,36.7,35.1,33.0,93,63,42,30.57,30.40,17,4,17,0.00
2013-11-5,56.6,47.2,38.5,49.6,39.8,30.6,96,76,63,30.61,30.47,15,5,15,0.01
2013-11-6,70.3,56.3,49.2,56.8,51.7,47.8,98,85,59,30.47,30.16,15,3,15,0.00
2013-11-7,70.3,53.8,40.7,61.2,46.1,32.9,98,78,44,30.18,30.00,22,3,22,0.02
2013-11-8,58.9,45.6,31.6,33.6,28.8,21.4,92,56,24,30.36,30.18,15,2,15,0.00
2013-11-9,57.8,44.2,27.1,37.5,31.3,25.8,95,64,37,30.44,30.25,14,2,17,0.00
2013-11-10,71.4,54.4,36.7,41.3,35.6,30.0,94,55,22,30.27,30.15,21,3,22,0.00
2013-11-11,61.7,46.6,31.6,34.4,30.2,25.5,88,57,27,30.40,30.19,12,1,12,0.00
2013-11-12,65.0,43.1,30.1,40.1,30.4,15.0,93,64,31,30.51,30.11,24,4,25,0.00
2013-11-13,49.6,32.7,17.4,22.1,17.6,14.7,91,58,26,30.61,30.49,9,1,9,0.00
2013-11-14,58.0,40.5,19.2,27.3,22.0,17.0,93,54,23,30.54,30.38,17,2,17,0.00
2013-11-15,56.9,42.9,26.6,46.9,33.5,22.4,97,72,39,30.39,30.24,6,0,6,0.19
2013-11-16,61.7,54.5,47.7,55.8,51.8,46.9,97,91,80,30.31,30.22,9,2,9,0.00
2013-11-17,63.6,58.8,54.7,61.1,56.9,52.5,98,94,86,30.24,29.92,6,1,6,0.31
2013-11-18,73.0,62.8,52.2,63.1,47.4,28.5,99,63,22,30.02,29.85,23,5,24,0.00
2013-11-19,55.9,48.3,39.8,34.2,28.0,23.0,75,47,29,30.30,30.01,19,4,19,0.00
2013-11-20,51.6,44.4,37.4,33.9,31.2,28.8,73,60,45,30.49,30.28,22,6,22,0.00
2013-11-21,53.2,48.1,44.4,48.6,40.6,32.8,95,75,63,30.53,30.42,15,4,15,0.01
2013-11-22,64.2,55.7,49.7,59.1,53.8,48.4,97,93,83,30.44,30.14,13,2,13,0.03
2013-11-23,59.5,54.4,41.8,57.3,44.0,22.5,99,71,39,30.24,30.10,17,3,19,0.01
2013-11-24,42.6,35.3,27.7,22.8,12.0,3.6,57,39,21,30.56,30.24,20,5,20,0.00
2013-11-25,40.7,31.8,18.6,20.9,13.3,6.0,86,49,30,30.63,30.39,10,2,10,0.00
2013-11-26,44.8,37.6,32.2,44.5,34.9,19.0,99,91,48,30.39,29.67,15,3,15,2.38
2013-11-27,45.4,38.2,28.1,44.8,30.4,17.0,99,75,51,30.25,29.57,33,6,34,0.06
2013-11-28,48.2,31.9,17.9,25.2,21.2,16.0,94,67,38,30.53,30.25,10,1,10,0.00
2013-11-29,53.2,37.3,21.5,31.7,24.1,19.9,95,64,31,30.65,30.52,12,2,13,0.00
2013-11-30,46.2,36.3,28.6,26.5,24.7,23.3,85,64,42,30.69,30.42,16,4,16,0.00
2013-12-1,57.9,39.4,26.4,39.1,31.2,24.3,95,75,45,30.42,30.07,12,1,12,0.00
2013-12-2,59.5,44.2,28.1,42.8,35.8,27.1,97,75,46,30.07,29.86,9,1,10,0.00
2013-12-3,59.3,52.6,47.1,52.6,48.4,42.1,97,86,73,29.99,29.90,8,1,9,0.14
2013-12-4,61.2,56.3,52.6,60.6,55.7,52.0,99,98,96,30.10,29.97,7,1,8,0.04
2013-12-5,67.5,63.5,59.9,66.5,62.7,59.0,99,97,91,30.12,30.01,15,3,16,0.08
2013-12-6,75.9,69.4,66.4,66.6,64.7,62.0,98,86,64,30.06,29.96,28,8,28,0.07
2013-12-7,66.4,56.0,46.1,64.7,50.9,38.6,98,84,69,30.42,30.00,20,6,20,0.07
2013-12-8,46.1,38.2,34.4,39.1,36.0,33.6,97,92,75,30.45,30.31,17,7,17,0.27
2013-12-9,44.1,39.5,34.3,43.6,38.9,33.5,99,98,97,30.32,30.09,8,1,10,0.34
2013-12-10,53.7,43.4,27.8,49.0,37.9,23.3,99,83,47,30.36,29.95,27,3,27,0.20
2013-12-11,51.0,35.5,22.0,30.1,25.6,20.8,96,71,38,30.51,30.35,10,1,13,0.00
2013-12-12,47.5,33.8,24.6,26.5,19.6,5.0,94,63,18,30.47,30.34,8,1,13,0.00
2013-12-13,50.9,35.8,19.7,32.2,24.3,17.0,93,66,36,30.44,30.30,9,1,12,0.00
2013-12-14,41.8,39.9,37.2,40.1,35.9,31.0,97,86,67,30.32,29.85,17,3,17,0.98
2013-12-15,51.2,41.8,29.7,41.2,35.6,26.6,98,80,53,30.17,29.79,17,3,18,0.00
2013-12-16,58.0,42.0,26.0,37.0,30.6,24.5,96,68,40,30.22,30.13,13,3,14,0.00
2013-12-17,62.6,49.0,30.9,37.4,33.7,24.5,92,58,37,30.18,29.96,30,6,33,0.00
2013-12-18,53.4,41.6,29.8,25.0,20.0,7.8,76,45,16,30.33,30.09,26,2,33,0.00
2013-12-19,62.5,42.9,23.8,32.2,25.5,20.3,93,57,20,30.38,30.26,18,2,19,0.00
2013-12-20,59.5,48.6,34.9,48.7,40.4,29.2,87,74,59,30.28,30.17,12,2,14,0.00
2013-12-21,67.2,56.6,46.7,63.1,53.8,44.5,97,90,82,30.19,30.02,10,2,15,0.01
2013-12-22,70.8,65.4,62.1,66.7,63.6,60.9,99,94,82,30.07,29.99,15,5,21,0.01
2013-12-23,63.6,56.6,45.1,63.3,54.4,38.0,99,93,75,30.20,29.99,12,2,13,1.07
2013-12-24,45.2,38.5,29.2,39.1,27.0,17.4,86,64,45,30.49,30.19,21,4,22,0.00
2013-12-25,41.4,30.0,23.2,22.5,15.9,10.7,79,58,32,30.61,30.44,12,2,12,0.00
2013-12-26,55.7,35.8,22.2,29.1,24.0,19.8,92,65,32,30.46,30.30,7,1,7,0.00
2013-12-27,52.8,35.4,22.8,31.5,24.2,20.9,95,69,32,30.53,30.41,7,0,7,0.00
2013-12-28,50.7,37.1,22.3,39.4,29.5,20.6,95,77,44,30.47,30.18,8,1,8,0.15
2013-12-29,56.9,46.1,40.3,50.9,43.8,39.0,98,92,79,30.18,29.83,14,3,14,1.01
2013-12-30,53.5,43.2,32.4,45.4,39.4,31.3,98,87,65,30.16,29.98,6,1,6,0.01
2013-12-31,51.1,40.2,30.2,40.4,28.8,18.3,97,69,28,30.41,30.15,17,2,18,0.00
2014-1-1,48.6,37.2,27.4,33.3,29.1,24.8,93,75,47,30.45,30.19,10,1,10,0.00
2014-1-2,46.3,41.0,30.8,45.3,37.6,17.8,97,88,58,30.20,29.69,30,4,32,0.18